1506978000.63,17824,14.81,74054.8,2.97,-23.69,-28.25,0,*7A
1506978001.91,17825,14.88,74058.0,2.97,-23.69,-28.25,0,*7B
1506978003.16,17826,14.88,74058.3,3.01,-23.53,-28.25,0,*7F
1506978004.45,17827,14.88,74058.5,2.97,-23.53,-28.25,0,*70
1506978005.7,17828,14.88,74052.5,2.97,-23.49,-28.15,0,*77
1506978006.93,17829,14.88,74054.0,2.97,-23.39,-28.15,0,*71
1506978008.19,17830,14.88,74054.8,3.01,-23.53,-28.25,0,*78
1506978009.44,17831,14.88,74052.0,3.01,-23.33,-28.09,0,*71
1506978010.7,17832,14.88,74054.8,2.97,-23.53,-28.15,0,*77
1506978011.95,17833,14.88,74056.0,3.01,-23.33,-27.99,0,*75
1506978013.17,17834,14.88,74054.8,3.01,-23.33,-27.93,0,*78
1506978014.43,17835,14.81,74054.5,3.01,-23.33,-27.99,0,*73
1506978015.67,17836,14.81,74054.5,3.01,-23.33,-28.09,0,*76
1506978016.91,17837,14.81,74054.8,3.01,-23.53,-28.15,0,*7C
1506978018.13,17838,14.81,74050.8,3.05,-23.39,-28.05,0,*7A
1506978019.36,17839,14.88,74052.3,3.01,-23.29,-27.93,0,*7E
1506978020.59,17840,14.81,74050.8,3.01,-23.53,-28.15,0,*7C
1506978021.82,17841,14.88,74058.8,3.01,-23.79,-28.59,0,*7D
1506978023.04,17842,14.88,74058.5,3.01,-23.85,-28.69,0,*7E
1506978024.29,17843,14.88,74058.0,3.01,-23.85,-28.59,0,*7C
1506978025.53,17844,14.88,74058.0,3.01,-23.69,-28.43,0,*72
1506978026.79,17845,14.88,74056.8,3.01,-23.53,-28.25,0,*7A
1506978028.04,17846,14.88,74054.8,2.97,-23.39,-28.09,0,*75
1506978029.26,17847,14.88,74056.5,3.01,-23.39,-27.99,0,*7C
1506978030.47,17848,14.88,74052.5,3.05,-23.43,-28.15,0,*71
1506978031.68,17849,14.88,74054.8,3.05,-23.59,-28.37,0,*7B
1506978032.91,17850,14.88,74050.5,3.05,-23.75,-28.47,0,*7A
1506978034.16,17851,14.88,74052.8,3.05,-23.69,-28.59,0,*79
1506978035.38,17852,14.81,74054.5,3.01,-23.99,-28.69,0,*72
1506978036.58,17853,14.88,74052.0,3.01,-23.79,-28.69,0,*7D
1506978037.81,17854,14.88,74052.0,3.01,-23.99,-28.69,0,*74
1506978039.03,17855,14.88,74054.8,3.01,-23.85,-28.69,0,*78
1506978040.31,17856,14.88,74058.8,2.97,-23.99,-28.79,0,*79
1506978041.57,17857,14.88,74056.8,2.97,-23.99,-28.85,0,*7B
1506978042.84,17858,14.88,74058.0,2.97,-24.15,-29.01,0,*7A
1506978044.13,17859,14.88,74056.0,2.97,-24.25,-29.01,0,*78
1506978045.38,17860,14.88,74056.3,2.97,-24.11,-28.97,0,*7B
1506978046.61,17861,14.81,74056.5,2.97,-23.79,-28.69,0,*72
1506978047.86,17862,14.88,74060.8,2.97,-23.85,-28.69,0,*72
1506978049.12,17863,14.81,74056.5,2.97,-23.79,-28.63,0,*7A
1506978050.39,17864,14.88,74060.0,2.97,-23.99,-28.79,0,*78
1506978051.61,17865,14.88,74060.3,2.95,-24.21,-29.07,0,*77
1506978052.84,17866,14.88,74062.3,2.93,-24.31,-29.23,0,*75
1506978054.09,17867,14.88,74062.0,2.93,-24.31,-29.17,0,*73
1506978055.33,17868,14.81,74058.8,2.93,-24.15,-29.07,0,*7B
1506978056.57,17869,14.81,74056.3,2.95,-24.15,-29.17,0,*7D
1506978057.76,17870,14.88,74058.0,2.95,-24.35,-29.23,0,*70
1506978058.96,17871,14.88,74058.5,2.95,-24.31,-29.23,0,*75
1506978060.24,17872,14.88,74058.8,2.93,-23.99,-29.01,0,*75
1506978061.48,17873,14.81,74056.5,2.93,-24.05,-29.01,0,*76
1506978062.76,17874,14.88,74062.8,2.93,-23.99,-29.01,0,*73
1506978064.0,17875,14.88,74058.0,2.93,-23.43,-28.47,0,*76
1506978065.25,17876,14.88,74056.0,2.93,-23.53,-28.37,0,*73
1506978066.52,17877,14.81,74058.5,2.93,-23.69,-28.63,0,*7A
1506978067.75,17878,14.81,74056.8,2.95,-23.89,-28.91,0,*70
1506978068.96,17879,14.81,74058.5,2.93,-23.39,-28.37,0,*70
1506978070.21,17880,14.88,74060.3,2.95,-23.53,-28.47,0,*7B
1506978071.49,17881,14.81,74058.0,2.93,-23.19,-28.05,0,*74
1506978072.72,17882,14.81,74056.5,2.95,-23.33,-28.31,0,*7E
1506978073.97,17883,14.88,74056.3,2.93,-23.09,-28.05,0,*77
1506978075.23,17884,14.88,74054.3,2.97,-23.29,-28.31,0,*71
1506978076.51,17885,14.88,74054.3,2.97,-23.29,-28.25,0,*75
1506978077.79,17886,14.81,74048.0,2.97,-23.65,-28.63,0,*7C
1506978079.01,17887,14.81,74052.0,3.01,-23.79,-28.79,0,*75
1506978080.27,17888,14.88,74054.3,2.97,-23.85,-28.85,0,*74
1506978081.52,17889,14.81,74050.5,2.97,-23.79,-28.79,0,*75
1506978082.77,17890,14.88,74052.5,2.97,-23.85,-28.97,0,*7E
1506978084.04,17891,14.88,74052.5,2.97,-23.95,-29.01,0,*70
1506978085.32,17892,14.88,74054.5,2.97,-23.99,-29.13,0,*7C
1506978086.51,17893,14.88,74052.3,2.95,-24.05,-29.23,0,*7E
1506978087.73,17894,14.81,74048.0,2.95,-23.75,-28.75,0,*7B
1506978088.98,17895,14.81,74052.0,2.97,-23.65,-28.69,0,*74
1506978090.2,17896,14.88,74056.0,2.95,-23.99,-29.23,0,*79
1506978091.47,17897,14.81,74048.8,2.97,-24.15,-29.29,0,*73
1506978092.76,17898,14.81,74050.5,2.97,-24.11,-29.35,0,*75
1506978093.99,17899,14.81,74052.8,2.97,-23.79,-28.85,0,*77
1506978095.24,17900,14.81,74054.0,2.97,-23.79,-28.79,0,*75
1506978096.49,17901,14.81,74048.0,2.97,-23.65,-28.69,0,*78
1506978097.76,17902,14.88,74052.8,2.97,-23.95,-29.13,0,*78
1506978099.03,17903,14.88,74052.3,2.97,-24.11,-29.29,0,*7B
1506978100.31,17904,14.81,74048.8,2.97,-23.99,-29.17,0,*76
1506978101.58,17905,14.88,74052.3,2.97,-23.95,-29.13,0,*7F
1506978102.8,17906,14.81,74052.5,2.93,-24.05,-29.23,0,*75
1506978104.02,17907,14.81,74052.0,2.95,-23.85,-29.07,0,*7B
1506978105.29,17908,14.81,74052.0,2.97,-23.95,-29.17,0,*76
1506978106.57,17909,14.81,74054.8,2.97,-23.99,-29.17,0,*7B
1506978107.84,17910,14.88,74056.5,2.97,-23.49,-28.47,0,*7A
1506978109.09,17911,14.81,74054.3,2.97,-23.69,-28.69,0,*75
1506978110.33,17912,14.81,74052.0,2.97,-23.69,-28.97,0,*77
1506978111.6,17913,14.81,74052.0,2.97,-23.95,-29.13,0,*78
1506978112.85,17914,14.81,74054.3,2.97,-23.79,-29.17,0,*79
1506978114.12,17915,14.81,74048.0,2.97,-23.99,-29.29,0,*7B
1506978115.4,17916,14.81,74052.3,2.97,-24.15,-29.35,0,*76
1506978116.67,17917,14.81,74050.5,2.97,-24.25,-29.45,0,*73
1506978117.9,17918,14.81,74054.3,3.01,-24.31,-29.51,0,*72
1506978119.17,17919,14.81,74050.8,2.97,-23.95,-29.29,0,*7B
1506978120.44,17920,14.81,74050.3,2.97,-23.99,-29.29,0,*7D
1506978121.7,17921,14.88,74058.5,2.95,-24.21,-29.39,0,*7B
1506978122.9,17922,14.81,74052.5,2.95,-24.31,-29.57,0,*71
1506978124.1,17923,14.88,74056.8,2.95,-23.75,-29.07,0,*72
1506978125.35,17924,14.81,74050.0,2.97,-23.65,-28.97,0,*7E
1506978126.62,17925,14.81,74054.0,2.97,-23.95,-29.29,0,*74
1506978127.91,17926,14.81,74054.8,2.97,-24.25,-29.51,0,*74
1506978129.14,17927,14.81,74056.3,2.97,-24.31,-29.67,0,*75
1506978130.37,17928,14.81,74054.0,2.95,-24.51,-29.73,0,*7B
1506978131.58,17929,14.81,74056.0,2.95,-24.35,-29.67,0,*7D
1506978132.78,17930,14.88,74058.8,2.95,-24.31,-29.67,0,*71
1506978134.01,17931,14.81,74054.5,2.95,-24.21,-29.67,0,*71
1506978135.24,17932,14.81,74056.8,2.95,-24.21,-29.67,0,*72
1506978136.47,17933,14.81,74058.8,2.95,-24.35,-29.73,0,*73
1506978137.67,17934,14.88,74058.3,2.95,-24.35,-29.79,0,*7E
1506978138.92,17935,14.81,74058.8,2.95,-24.41,-30.05,0,*7F
1506978140.14,17936,14.81,74058.0,2.93,-24.57,-30.11,0,*78
1506978141.39,17937,14.88,74060.3,2.93,-24.51,-30.05,0,*7A
1506978142.64,17938,14.81,74058.3,2.93,-24.51,-30.05,0,*75
1506978143.87,17939,14.81,74056.8,2.93,-24.31,-29.79,0,*71
1506978145.09,17940,14.81,74058.5,2.93,-24.35,-29.79,0,*7B
1506978146.34,17941,14.81,74056.0,2.93,-24.31,-29.73,0,*74
1506978147.57,17942,14.81,74058.3,2.93,-24.35,-29.95,0,*7B
1506978148.82,17943,14.81,74056.8,2.93,-24.41,-29.95,0,*79
1506978150.09,17944,14.81,74054.3,2.93,-24.41,-30.05,0,*7F
1506978151.32,17945,14.88,74058.0,2.93,-24.35,-29.95,0,*7C
1506978152.57,17946,14.81,74054.0,2.93,-24.21,-29.67,0,*77
1506978153.81,17947,14.88,74060.5,2.91,-24.35,-30.01,0,*79
1506978155.04,17948,14.81,74058.3,2.91,-24.57,-30.17,0,*75
1506978156.28,17949,14.81,74060.8,2.89,-24.47,-30.23,0,*7B
1506978157.49,17950,14.81,74060.3,2.91,-24.35,-29.83,0,*7D
1506978158.72,17951,14.81,74056.3,2.91,-24.57,-30.17,0,*7D
1506978159.95,17952,14.81,74062.0,2.91,-24.41,-30.11,0,*7F
1506978161.19,17953,14.88,74062.5,2.89,-24.31,-29.83,0,*73
1506978162.39,17954,14.81,74060.0,2.91,-23.89,-29.45,0,*73
1506978163.66,17955,14.81,74062.0,2.93,-24.15,-29.73,0,*77
1506978164.88,17956,14.81,74056.0,2.93,-24.35,-30.11,0,*7A
1506978166.13,17957,14.81,74058.0,2.91,-24.11,-29.73,0,*73
1506978167.34,17958,14.81,74062.5,2.91,-23.89,-29.57,0,*7C
1506978168.54,17959,14.81,74058.0,2.91,-23.79,-29.45,0,*71
1506978169.79,17960,14.81,74058.3,2.93,-23.75,-29.39,0,*7E
1506978171.04,17961,14.81,74056.3,2.93,-23.75,-29.39,0,*7F
1506978172.31,17962,14.81,74058.0,2.93,-23.85,-29.51,0,*7D
1506978173.54,17963,14.81,74054.3,2.95,-23.75,-29.39,0,*7B
1506978174.75,17964,14.88,74058.5,2.95,-23.69,-29.23,0,*7A
1506978175.98,17965,14.81,74054.0,2.95,-23.99,-29.67,0,*74
1506978177.2,17966,14.81,74058.8,2.95,-24.31,-30.05,0,*7E
1506978178.42,17967,14.81,74056.5,2.95,-24.15,-29.79,0,*7A
1506978179.62,17968,14.81,74054.5,2.95,-24.05,-29.67,0,*7B
1506978180.91,17969,14.81,74058.8,2.97,-24.11,-29.89,0,*7D
1506978182.16,17970,14.81,74060.8,2.97,-23.99,-29.67,0,*72
1506978183.42,17971,14.81,74058.3,3.05,-23.85,-29.51,0,*71
1506978184.69,17972,14.81,74058.0,2.97,-24.31,-30.17,0,*7A
1506978185.94,17973,14.81,74058.3,2.97,-24.35,-30.05,0,*7C
1506978187.15,17974,14.81,74054.0,3.01,-24.47,-30.33,0,*75
1506978188.39,17975,14.81,74054.8,2.97,-24.51,-30.33,0,*7D
1506978189.62,17976,14.81,74056.8,2.95,-24.51,-30.39,0,*76
1506978190.82,17977,14.81,74056.0,2.95,-24.57,-30.45,0,*7A
1506978192.04,17978,14.81,74058.0,2.95,-24.15,-29.79,0,*74
1506978193.33,17979,14.81,74052.5,2.97,-24.25,-30.17,0,*74
1506978194.56,17980,14.81,74052.5,2.97,-24.35,-30.23,0,*74
1506978195.82,17981,14.81,74052.3,2.97,-24.25,-30.23,0,*74
1506978197.06,17982,14.81,74056.0,2.97,-24.35,-30.33,0,*77
1506978198.32,17983,14.81,74054.5,2.97,-24.51,-30.51,0,*70
1506978199.53,17984,14.81,74058.3,2.95,-24.31,-30.27,0,*72
1506978200.82,17985,14.81,74056.3,2.97,-24.25,-30.17,0,*77
1506978202.11,17986,14.81,74056.5,2.97,-24.25,-30.17,0,*74
1506978203.35,17987,14.81,74054.3,2.97,-24.47,-30.33,0,*77
1506978204.63,17988,14.81,74054.3,2.97,-24.67,-30.55,0,*7A
1506978205.87,17989,14.81,74054.5,2.97,-24.77,-30.83,0,*71
1506978207.11,17990,14.81,74058.5,2.97,-24.77,-30.83,0,*79
1506978208.39,17991,14.81,74058.3,2.97,-24.83,-30.95,0,*74
1506978209.66,17992,14.81,74054.8,2.95,-24.71,-30.77,0,*74
1506978210.91,17993,14.81,74056.3,2.95,-24.83,-30.95,0,*74
1506978212.1,17994,14.81,74052.3,2.95,-24.97,-31.01,0,*7A
1506978213.38,17995,14.81,74054.8,2.93,-25.03,-31.11,0,*70
1506978214.6,17996,14.81,74058.3,2.93,-25.13,-31.17,0,*74
1506978215.82,17997,14.81,74056.3,2.95,-24.97,-31.11,0,*78
1506978217.07,17998,14.81,74056.8,2.93,-24.97,-30.95,0,*7C
1506978218.33,17999,14.81,74056.8,2.95,-24.83,-30.77,0,*72
1506978219.62,18000,14.81,74062.0,2.93,-24.71,-30.73,0,*7B
1506978220.86,18001,14.81,74060.0,2.93,-24.97,-31.11,0,*77
1506978222.09,18002,14.81,74060.3,2.93,-25.13,-31.29,0,*72
1506978223.36,18003,14.81,74056.5,2.93,-24.87,-30.95,0,*79
1506978224.63,18004,14.81,74052.3,2.93,-24.67,-30.55,0,*7C
1506978225.92,18005,14.81,74052.0,2.93,-24.71,-30.77,0,*7A
1506978227.18,18006,14.81,74052.5,2.93,-24.57,-30.61,0,*7A
1506978228.43,18007,14.81,74052.8,2.93,-24.41,-30.45,0,*7A
1506978229.71,18008,14.81,74052.0,2.93,-24.67,-30.73,0,*74
1506978231.01,18009,14.81,74052.3,2.93,-24.71,-30.77,0,*76
1506978232.29,18010,14.81,74052.0,2.93,-24.71,-30.73,0,*7A
1506978233.54,18011,14.81,74054.0,2.91,-24.87,-30.95,0,*78
1506978234.75,18012,14.81,74058.0,2.91,-24.97,-31.17,0,*71
1506978236.0,18013,14.81,74056.5,2.93,-25.13,-31.11,0,*79
1506978237.27,18014,14.81,74058.0,2.93,-24.87,-30.95,0,*7F
1506978238.48,18015,14.81,74058.5,2.93,-24.97,-31.01,0,*73
1506978239.73,18016,14.81,74056.5,2.93,-25.03,-31.29,0,*76
1506978241.01,18017,14.81,74056.3,2.91,-24.71,-30.77,0,*7B
1506978242.21,18018,14.81,74058.5,2.91,-24.35,-30.45,0,*75
1506978243.45,18019,14.81,74056.3,2.91,-24.25,-30.33,0,*74
1506978244.69,18020,14.81,74058.0,2.91,-24.47,-30.51,0,*7E
1506978245.94,18021,14.81,74058.5,2.93,-24.31,-30.39,0,*72
1506978247.17,18022,14.81,74056.0,2.93,-24.31,-30.27,0,*7E
1506978248.4,18023,14.81,74056.0,2.95,-24.57,-30.73,0,*78
1506978249.66,18024,14.81,74060.3,2.93,-24.57,-30.73,0,*79
1506978250.89,18025,14.81,74058.0,2.95,-24.57,-30.61,0,*7D
1506978252.17,18026,14.81,74054.8,2.93,-24.67,-30.73,0,*78
1506978253.43,18027,14.81,74052.8,2.95,-24.83,-30.77,0,*71
1506978254.7,18028,14.81,74058.8,2.95,-24.71,-30.89,0,*72
1506978255.96,18029,14.81,74058.8,2.95,-24.71,-30.89,0,*73
1506978257.23,18030,14.81,74058.0,2.95,-24.71,-30.77,0,*7A
1506978258.43,18031,14.81,74056.0,2.95,-24.97,-31.17,0,*74
1506978259.63,18032,14.81,74052.3,2.95,-25.13,-31.29,0,*77
1506978260.88,18033,14.81,74054.0,2.95,-25.29,-31.51,0,*70
1506978262.15,18034,14.81,74052.8,2.97,-25.45,-31.61,0,*7C
1506978263.35,18035,14.81,74054.5,2.95,-25.49,-31.67,0,*75
1506978264.59,18036,14.81,74056.3,2.95,-25.45,-31.61,0,*7C
1506978265.8,18037,14.81,74052.0,2.95,-25.45,-31.67,0,*7B
1506978267.05,18038,14.81,74052.3,2.93,-25.55,-31.67,0,*73
1506978268.3,18039,14.81,74054.5,2.93,-25.55,-31.79,0,*7D
1506978269.55,18040,14.81,74052.8,2.93,-25.65,-31.85,0,*73
1506978270.75,18041,14.81,74056.3,2.95,-25.49,-31.67,0,*76
1506978271.97,18042,14.81,74054.8,2.91,-25.49,-31.57,0,*72
1506978273.2,18043,14.81,74054.3,2.91,-25.39,-31.51,0,*72
1506978274.42,18044,14.81,74058.5,2.91,-25.35,-31.57,0,*7F
1506978275.65,18045,14.81,74054.8,2.91,-25.09,-31.23,0,*72
1506978276.84,18046,14.81,74056.5,2.91,-25.19,-31.33,0,*71
1506978278.07,18047,14.81,74056.8,2.91,-25.55,-31.67,0,*79
1506978279.35,18048,14.81,74058.5,2.89,-25.55,-31.61,0,*79
1506978280.58,18049,14.81,74052.8,2.91,-25.23,-31.51,0,*73
1506978281.8,18050,14.81,74054.8,2.91,-25.23,-31.39,0,*75
1506978283.03,18051,14.81,74052.8,2.91,-25.49,-31.73,0,*76
1506978284.28,18052,14.81,74054.3,2.91,-25.55,-31.85,0,*71
1506978285.54,18053,14.81,74054.0,2.89,-25.61,-31.91,0,*7B
1506978286.77,18054,14.81,74054.3,2.93,-25.45,-31.67,0,*78
1506978288.03,18055,14.81,74054.0,2.91,-25.55,-31.73,0,*7F
1506978289.28,18056,14.81,74054.3,2.89,-25.65,-31.91,0,*7A
1506978290.53,18057,14.81,74052.8,2.91,-25.55,-31.73,0,*7D
1506978291.75,18058,14.81,74052.3,2.91,-25.35,-31.57,0,*72
1506978292.98,18059,14.81,74054.3,2.91,-25.49,-31.73,0,*7E
1506978294.2,18060,14.81,74054.5,2.91,-25.75,-32.01,0,*7D
1506978295.45,18061,14.81,74050.5,2.89,-25.81,-32.13,0,*7D
1506978296.7,18062,14.81,74054.5,2.89,-25.81,-32.13,0,*7E
1506978297.99,18063,14.81,74052.5,2.89,-25.81,-32.19,0,*75
1506978299.21,18064,14.81,74054.3,2.91,-25.75,-32.01,0,*79
1506978300.44,18065,14.81,74052.5,2.89,-25.91,-32.13,0,*78
1506978301.66,18066,14.81,74054.0,2.89,-25.91,-32.13,0,*7B
1506978302.94,18067,14.81,74052.8,2.89,-25.75,-32.07,0,*75
1506978304.2,18068,14.81,74052.8,2.89,-25.61,-31.91,0,*73
1506978305.42,18069,14.81,74058.0,2.87,-25.61,-31.91,0,*7C
1506978306.66,18070,14.81,74058.5,2.87,-25.29,-31.57,0,*72
1506978307.92,18071,14.81,74054.3,2.89,-25.13,-31.39,0,*7C
1506978309.17,18072,14.81,74056.8,2.89,-25.23,-31.57,0,*74
1506978310.41,18073,14.81,74052.5,2.89,-25.39,-31.57,0,*7E
1506978311.64,18074,14.81,74056.8,2.89,-25.61,-31.79,0,*78
1506978312.93,18075,14.81,74052.8,2.89,-25.75,-32.07,0,*76
1506978314.18,18076,14.81,74054.5,2.89,-25.91,-32.19,0,*70
1506978315.43,18077,14.81,74054.0,2.89,-26.07,-32.45,0,*74
1506978316.64,18078,14.81,74052.0,2.91,-26.07,-32.35,0,*75
1506978317.86,18079,14.81,74050.8,2.87,-25.91,-32.29,0,*72
1506978319.11,18080,14.81,74050.8,2.87,-25.97,-32.19,0,*71
1506978320.31,18081,14.81,74052.5,2.87,-26.23,-32.35,0,*72
1506978321.56,18082,14.81,74052.0,2.85,-26.17,-32.57,0,*70
1506978322.79,18083,14.81,74050.0,2.87,-26.29,-32.51,0,*78
1506978324.02,18084,14.81,74054.3,2.87,-26.13,-32.51,0,*76
1506978325.23,18085,14.81,74050.5,2.87,-26.07,-32.35,0,*70
1506978326.49,18086,14.81,74054.0,2.85,-26.13,-32.51,0,*76
1506978327.71,18087,14.81,74056.3,2.87,-26.07,-32.45,0,*75
1506978329.0,18088,14.81,74056.0,2.85,-25.71,-31.95,0,*74
1506978330.23,18089,14.81,74054.8,2.87,-25.55,-31.79,0,*73
1506978331.48,18090,14.81,74056.3,2.87,-25.55,-31.73,0,*71
1506978332.68,18091,14.81,74058.3,2.87,-25.61,-31.79,0,*7D
1506978333.9,18092,14.81,74040.0,2.87,-25.23,-31.39,0,*7C
1506978335.17,18093,14.81,74040.0,2.87,-24.83,-30.89,0,*7C
1506978336.38,18094,14.81,74040.3,2.91,-24.57,-30.67,0,*75
1506978337.61,18095,14.81,74034.0,2.89,-24.77,-31.01,0,*7E
1506978338.85,18096,14.81,74034.3,2.91,-24.61,-30.61,0,*74
1506978340.12,18097,14.81,74034.0,2.93,-24.67,-30.73,0,*72
1506978341.38,18098,14.81,74034.3,2.93,-24.57,-30.73,0,*7E
1506978342.65,18099,14.81,74036.0,2.95,-24.71,-30.89,0,*78
1506978343.84,18100,14.81,74038.8,2.95,-25.13,-31.33,0,*7C
1506978345.04,18101,14.81,74036.8,2.95,-25.19,-31.33,0,*77
1506978346.28,18102,14.81,74036.0,2.97,-25.61,-31.73,0,*7D
1506978347.54,18103,14.81,74038.5,2.97,-25.29,-31.45,0,*75
1506978348.77,18104,14.81,74034.0,2.97,-25.23,-31.45,0,*78
1506978350.04,18105,14.81,74032.5,2.97,-25.45,-31.57,0,*7A
1506978351.28,18106,14.81,74034.0,2.97,-25.23,-31.57,0,*79
1506978352.55,18107,14.81,74040.8,2.97,-25.29,-31.57,0,*72
1506978353.81,18108,14.81,74036.8,2.97,-25.29,-31.45,0,*7E
1506978355.03,18109,14.81,74042.5,3.01,-25.61,-31.73,0,*78
1506978356.25,18110,14.81,74040.5,3.01,-25.61,-31.73,0,*70
1506978357.47,18111,14.81,74036.5,3.01,-25.49,-31.73,0,*7B
1506978358.7,18112,14.81,74036.8,3.01,-25.49,-31.61,0,*7B
1506978359.93,18113,14.81,74040.8,3.01,-25.65,-31.91,0,*7B
1506978361.16,18114,14.81,74042.5,3.01,-25.49,-31.61,0,*7D
1506978362.4,18115,14.81,74040.0,3.01,-25.45,-31.73,0,*73
1506978363.62,18116,14.81,74038.3,3.01,-25.45,-31.45,0,*75
1506978364.83,18117,14.81,74042.8,3.09,-25.35,-31.57,0,*78
1506978366.09,18118,14.81,74046.8,3.05,-25.81,-32.07,0,*72
1506978367.32,18119,14.81,74044.3,3.05,-25.81,-32.01,0,*75
1506978368.53,18120,14.81,74046.0,3.05,-26.03,-32.23,0,*76
1506978369.81,18121,14.81,74050.0,3.07,-25.71,-31.85,0,*7C
1506978371.06,18122,14.81,74046.8,3.07,-25.55,-31.79,0,*7A
1506978372.26,18123,14.81,74046.0,3.05,-25.19,-31.29,0,*74
1506978373.46,18124,14.81,74042.3,3.05,-25.35,-31.33,0,*76
1506978374.71,18125,14.81,74040.0,3.07,-25.55,-31.67,0,*72
1506978375.99,18126,14.81,74042.0,3.07,-25.55,-31.85,0,*7D
1506978377.25,18127,14.81,74046.0,3.07,-25.87,-32.07,0,*7A
1506978378.5,18128,14.81,74046.0,3.07,-25.97,-32.23,0,*72
1506978379.74,18129,14.81,74044.3,3.07,-26.03,-32.35,0,*7A
1506978380.99,18130,14.81,74046.3,3.07,-26.29,-32.39,0,*76
1506978382.27,18131,14.81,74046.0,3.07,-25.55,-31.51,0,*72
1506978383.49,18132,14.81,74042.5,3.09,-25.35,-31.39,0,*77
1506978384.72,18133,14.81,74040.3,3.09,-25.49,-31.61,0,*70
1506978385.91,18134,14.81,74034.5,3.09,-25.23,-31.29,0,*77
1506978387.17,18135,14.81,74036.8,3.11,-25.49,-31.61,0,*7F
1506978388.38,18136,14.81,74036.5,3.09,-25.35,-31.57,0,*7B
1506978389.62,18137,14.81,74038.8,3.11,-25.35,-31.39,0,*7B
1506978390.85,18138,14.81,74038.3,3.11,-25.23,-31.29,0,*72
1506978392.11,18139,14.81,74042.0,3.11,-25.45,-31.39,0,*72
1506978393.31,18140,14.81,74040.8,3.13,-25.23,-31.33,0,*74
1506978394.52,18141,14.81,74042.3,3.15,-25.23,-31.33,0,*73
1506978395.77,18142,14.81,74044.0,3.15,-25.39,-31.51,0,*7F
1506978397.0,18143,14.81,74046.0,3.17,-25.55,-31.67,0,*73
1506978398.22,18144,14.81,74046.8,3.17,-25.65,-31.85,0,*7B
1506978399.42,18145,14.81,74044.5,3.17,-25.65,-31.79,0,*79
1506978400.67,18146,14.81,74044.3,3.17,-26.13,-32.19,0,*7D
1506978401.92,18147,14.81,74036.0,3.17,-26.13,-32.19,0,*7C
1506978403.13,18148,14.81,74038.8,3.17,-26.39,-32.69,0,*7C
1506978404.33,18149,14.81,74038.0,3.17,-26.23,-32.51,0,*7D
1506978405.55,18150,14.81,74042.0,3.19,-26.45,-32.51,0,*7B
1506978406.8,18151,14.81,74046.0,3.17,-26.71,-32.97,0,*79
1506978408.07,18152,14.81,74042.5,3.19,-26.93,-33.09,0,*7E
1506978409.27,18153,14.81,74040.8,3.13,-27.03,-33.21,0,*77
1506978410.49,18154,14.81,74042.0,3.15,-26.87,-33.21,0,*7B
1506978411.72,18155,14.81,74040.8,3.13,-26.93,-33.03,0,*79
1506978412.95,18156,14.81,74040.3,3.13,-26.93,-33.15,0,*7D
1506978414.2,18157,14.81,74046.0,3.13,-26.71,-32.85,0,*78
1506978415.47,18158,14.81,74044.0,3.15,-26.71,-32.85,0,*71
1506978416.69,18159,14.81,74044.5,3.13,-26.87,-32.97,0,*7C
1506978417.88,18160,14.81,74048.0,3.13,-27.03,-33.15,0,*70
1506978419.1,18161,14.81,74046.0,3.13,-27.19,-33.21,0,*7D
1506978420.31,18162,14.81,74046.8,3.13,-27.07,-33.21,0,*71
1506978421.58,18163,14.81,74044.8,3.11,-27.23,-33.27,0,*72
1506978422.83,18164,14.81,74048.8,3.11,-27.13,-33.27,0,*76
1506978424.11,18165,14.81,74044.5,3.11,-26.97,-33.09,0,*76
1506978425.39,18166,14.81,74038.0,3.11,-26.93,-33.09,0,*71
1506978426.61,18167,14.81,74044.0,3.11,-27.07,-33.21,0,*76
1506978427.86,18168,14.81,74040.8,3.09,-27.23,-33.27,0,*70
1506978429.06,18169,14.81,74040.8,3.09,-27.13,-33.21,0,*74
1506978430.31,18170,14.81,74046.5,3.09,-27.23,-33.27,0,*79
1506978431.53,18171,14.81,74040.8,3.09,-27.13,-33.27,0,*7B
1506978432.78,18172,14.81,74046.5,3.09,-27.23,-33.27,0,*7B
1506978433.99,18173,14.81,74044.8,3.09,-27.29,-33.37,0,*71
1506978435.24,18174,14.81,74044.5,3.09,-27.35,-33.43,0,*78
1506978436.47,18175,14.81,74046.3,3.09,-27.29,-33.43,0,*74
1506978437.75,18176,14.81,74046.8,3.07,-27.39,-33.43,0,*78
1506978439.01,18177,14.81,74048.8,3.05,-27.39,-33.43,0,*7B
1506978440.29,18178,14.81,74046.0,3.07,-27.39,-33.43,0,*76
1506978441.54,18179,14.81,74046.3,3.05,-27.35,-33.43,0,*79
1506978442.82,18180,14.81,74040.8,3.07,-27.35,-33.31,0,*78
1506978444.04,18181,14.81,74046.3,3.05,-27.03,-32.97,0,*73
1506978445.32,18182,14.81,74050.0,3.07,-27.35,-33.31,0,*7A
1506978446.54,18183,14.81,74048.5,3.07,-27.13,-33.15,0,*79
1506978447.74,18184,14.81,74046.0,3.05,-27.13,-33.15,0,*7C
1506978448.99,18185,14.81,74044.8,3.05,-27.19,-33.31,0,*71
1506978450.22,18186,14.81,74048.5,3.05,-27.03,-33.09,0,*72
1506978451.48,18187,14.81,74048.5,3.07,-27.29,-33.27,0,*75
1506978452.71,18188,14.81,74050.0,3.05,-27.55,-33.49,0,*7B
1506978453.91,18189,14.81,74054.0,3.05,-27.67,-33.67,0,*77
1506978455.16,18190,14.81,74050.3,3.07,-27.71,-33.77,0,*7B
1506978456.39,18191,14.81,74046.8,3.05,-27.51,-33.61,0,*7D
1506978457.61,18192,14.81,74048.8,3.05,-27.55,-33.77,0,*7D
1506978458.84,18193,14.81,74046.8,3.05,-27.83,-33.83,0,*7C
1506978460.03,18194,14.81,74048.3,3.05,-27.89,-33.83,0,*71
1506978461.26,18195,14.81,74050.8,3.05,-27.71,-33.77,0,*7C
1506978462.51,18196,14.81,74048.5,3.01,-27.83,-33.89,0,*77
1506978463.73,18197,14.81,74048.8,3.01,-27.93,-33.89,0,*77
1506978464.98,18198,14.81,74054.3,3.01,-27.83,-33.89,0,*79
1506978466.23,18199,14.81,74052.0,2.97,-27.99,-33.95,0,*70
1506978467.48,18200,14.81,74050.3,2.97,-27.77,-33.73,0,*7B
1506978468.74,18201,14.81,74050.3,2.97,-27.51,-33.43,0,*7D
1506978469.94,18202,14.81,74048.8,3.01,-27.67,-33.55,0,*72
1506978471.17,18203,14.81,74048.0,3.01,-27.61,-33.55,0,*75
1506978472.43,18204,14.81,74048.0,2.97,-27.61,-33.55,0,*7C
1506978473.65,18205,14.81,74054.3,2.97,-27.67,-33.55,0,*7B
1506978474.85,18206,14.81,74050.3,3.01,-27.77,-33.55,0,*77
1506978476.08,18207,14.81,74048.0,2.97,-27.67,-33.55,0,*79
1506978477.32,18208,14.81,74050.3,3.01,-27.61,-33.37,0,*7A
1506978478.57,18209,14.81,74050.3,2.97,-27.77,-33.61,0,*71
1506978479.8,18210,14.81,74052.8,3.01,-27.61,-33.55,0,*77
1506978481.03,18211,14.81,74050.3,3.01,-27.67,-33.43,0,*77
1506978482.29,18212,14.81,74054.8,2.97,-27.61,-33.55,0,*7B
1506978483.54,18213,14.81,74054.0,2.97,-27.67,-33.61,0,*7B
1506978484.82,18214,14.81,74048.8,2.97,-27.99,-33.89,0,*7B
1506978486.04,18215,14.81,74050.8,2.97,-28.15,-33.95,0,*7C
1506978487.26,18216,14.81,74050.3,3.01,-28.43,-34.13,0,*7B
1506978488.53,18217,14.81,74052.5,2.97,-28.47,-34.31,0,*70
1506978489.8,18218,14.81,74052.0,2.97,-28.47,-34.31,0,*7F
1506978491.07,18219,14.81,74052.5,2.97,-28.47,-34.53,0,*7A
1506978492.31,18220,14.81,74052.8,2.95,-28.47,-34.31,0,*76
1506978493.53,18221,14.81,74052.0,2.93,-28.37,-34.13,0,*76
1506978494.75,18222,14.81,74050.0,2.95,-28.53,-34.35,0,*75
1506978495.99,18223,14.81,74052.5,2.95,-28.47,-34.31,0,*75
1506978497.22,18224,14.81,74054.5,2.95,-28.47,-34.19,0,*78
1506978498.47,18225,14.81,74052.3,2.93,-28.53,-34.31,0,*70
1506978499.69,18226,14.81,74052.5,2.93,-28.31,-34.13,0,*77
1506978500.94,18227,14.81,74054.3,2.93,-28.31,-34.01,0,*75
1506978502.18,18228,14.81,74054.8,2.93,-28.31,-34.01,0,*7A
1506978503.4,18229,14.81,74050.3,2.93,-28.31,-34.13,0,*78
1506978504.62,18230,14.75,74048.8,2.93,-28.31,-34.13,0,*70